| time (UTC) | temp F | wind direction | speed MPH | gust MPH | rain 1hr in | rain 24hr in | rain mn in | humidity % | barometer mb |
| 20260509161537 | 66 | 111 | 0.0 | 5.0 | 0.00 | 0.00 | 0.00 | 25 | 1019.5 |
| 20260509160033 | 63 | 19 | 1.0 | 7.0 | 0.00 | 0.00 | 0.00 | 25 | 1019.7 |
| 20260509154529 | 61 | 117 | 1.0 | 8.0 | 0.00 | 0.00 | 0.00 | 28 | 1020.0 |
| 20260509153024 | 58 | 74 | 1.0 | 5.0 | 0.00 | 0.00 | 0.00 | 32 | 1020.1 |
| 20260509151523 | 57 | 318 | 1.0 | 4.0 | 0.00 | 0.00 | 0.00 | 32 | 1020.3 |
| 20260509150032 | 57 | 322 | 4.0 | 10.0 | 0.00 | 0.00 | 0.00 | 32 | 1020.3 |
| 20260509144530 | 57 | 331 | 5.0 | 11.0 | 0.00 | 0.00 | 0.00 | 32 | 1020.4 |
| 20260509143021 | 57 | 281 | 6.0 | 15.0 | 0.00 | 0.00 | 0.00 | 32 | 1020.4 |
| 20260509141522 | 57 | 280 | 5.0 | 13.0 | 0.00 | 0.00 | 0.00 | 32 | 1020.4 |
| 20260509140016 | 56 | 279 | 7.0 | 14.0 | 0.00 | 0.00 | 0.00 | 32 | 1020.3 |
| 20260509134516 | 57 | 290 | 5.0 | 12.0 | 0.00 | 0.00 | 0.00 | 32 | 1020.1 |
| 20260509133015 | 56 | 283 | 4.0 | 13.0 | 0.00 | 0.00 | 0.00 | 35 | 1019.9 |
| 20260509131519 | 57 | 298 | 4.0 | 10.0 | 0.00 | 0.00 | 0.00 | 35 | 1019.9 |
| 20260509130015 | 56 | 286 | 6.0 | 19.0 | 0.00 | 0.00 | 0.00 | 35 | 1019.8 |
| 20260509124509 | 54 | 303 | 1.0 | 12.0 | 0.00 | 0.00 | 0.00 | 41 | 1019.7 |
| 20260509123003 | 48 | 290 | 1.0 | 4.0 | 0.00 | 0.00 | 0.00 | 57 | 1019.8 |
| 20260509121501 | 46 | 86 | 0.0 | 3.0 | 0.00 | 0.00 | 0.00 | 61 | 1019.6 |
| 20260509120001 | 45 | 286 | 0.0 | 3.0 | 0.00 | 0.00 | 0.00 | 62 | 1019.3 |
| 20260509114601 | 45 | 284 | 0.0 | 2.0 | 0.00 | 0.00 | 0.00 | 64 | 1019.3 |
| 20260509113100 | 45 | 284 | 0.0 | 2.0 | 0.00 | 0.00 | 0.00 | 63 | 1019.1 |
| 20260509111558 | 46 | 304 | 0.0 | 0.0 | 0.00 | 0.00 | 0.00 | 64 | 1019.2 |
| 20260509110058 | 46 | 304 | 1.0 | 4.0 | 0.00 | 0.00 | 0.00 | 63 | 1019.2 |
| 20260509104558 | 45 | 303 | 0.0 | 2.0 | 0.00 | 0.00 | 0.00 | 65 | 1019.4 |
| 20260509103059 | 45 | 302 | 0.0 | 0.0 | 0.00 | 0.00 | 0.00 | 65 | 1019.1 |
| 20260509101604 | 46 | 303 | 0.0 | 3.0 | 0.00 | 0.00 | 0.00 | 63 | 1019.2 |
| 20260509100055 | 45 | 304 | 0.0 | 1.0 | 0.00 | 0.00 | 0.00 | 65 | 1019.3 |
| 20260509094552 | 46 | 304 | 0.0 | 1.0 | 0.00 | 0.00 | 0.00 | 64 | 1019.1 |
| 20260509093057 | 47 | 304 | 0.0 | 3.0 | 0.00 | 0.00 | 0.00 | 62 | 1019.3 |
| 20260509091552 | 47 | 304 | 1.0 | 3.0 | 0.00 | 0.00 | 0.00 | 62 | 1019.4 |
| 20260509090046 | 46 | 304 | 0.0 | 2.0 | 0.00 | 0.00 | 0.00 | 63 | 1019.4 |
| 20260509084549 | 46 | 304 | 1.0 | 3.0 | 0.00 | 0.00 | 0.00 | 63 | 1019.4 |
| 20260509083048 | 47 | 304 | 0.0 | 3.0 | 0.00 | 0.00 | 0.00 | 62 | 1019.4 |
| 20260509081548 | 47 | 302 | 0.0 | 2.0 | 0.00 | 0.00 | 0.00 | 61 | 1019.5 |
| 20260509080040 | 48 | 302 | 0.0 | 0.0 | 0.00 | 0.00 | 0.00 | 59 | 1019.5 |
| 20260509074551 | 48 | 303 | 0.0 | 0.0 | 0.00 | 0.00 | 0.00 | 60 | 1019.7 |
| 20260509073037 | 48 | 302 | 0.0 | 2.0 | 0.00 | 0.00 | 0.00 | 60 | 1019.8 |
| 20260509071536 | 48 | 303 | 0.0 | 1.0 | 0.00 | 0.00 | 0.00 | 60 | 1020.0 |
| 20260509070034 | 49 | 304 | 0.0 | 1.0 | 0.00 | 0.00 | 0.00 | 58 | 1020.3 |
| 20260509064540 | 50 | 222 | 0.0 | 1.0 | 0.00 | 0.00 | 0.00 | 57 | 1020.3 |
| 20260509063031 | 51 | 96 | 1.0 | 5.0 | 0.00 | 0.00 | 0.00 | 55 | 1020.3 |
| 20260509061531 | 51 | 125 | 1.0 | 7.0 | 0.00 | 0.00 | 0.00 | 56 | 1020.2 |
| 20260509060030 | 51 | 268 | 1.0 | 6.0 | 0.00 | 0.00 | 0.00 | 56 | 1020.2 |
| 20260509054530 | 51 | 105 | 1.0 | 5.0 | 0.00 | 0.00 | 0.00 | 57 | 1020.4 |
| 20260509053030 | 51 | 234 | 0.0 | 4.0 | 0.00 | 0.00 | 0.00 | 58 | 1020.5 |
| 20260509051534 | 50 | 126 | 0.0 | 4.0 | 0.00 | 0.00 | 0.00 | 60 | 1020.6 |
| 20260509050033 | 51 | 129 | 0.0 | 2.0 | 0.00 | 0.00 | 0.00 | 59 | 1020.6 |
| 20260509044528 | 51 | 130 | 0.0 | 3.0 | 0.00 | 0.00 | 0.00 | 57 | 1020.7 |
| 20260509043028 | 52 | 215 | 1.0 | 5.0 | 0.00 | 0.00 | 0.00 | 57 | 1020.7 |
| 20260509041528 | 52 | 272 | 0.0 | 1.0 | 0.00 | 0.00 | 0.00 | 57 | 1020.7 |
| 20260509040030 | 52 | 229 | 0.0 | 0.0 | 0.00 | 0.00 | 0.00 | 57 | 1020.7 |
| 20260509034540 | 53 | 229 | 0.0 | 2.0 | 0.00 | 0.00 | 0.00 | 56 | 1020.7 |
| 20260509033027 | 53 | 164 | 1.0 | 4.0 | 0.00 | 0.00 | 0.00 | 55 | 1020.6 |
| 20260509031528 | 53 | 128 | 0.0 | 4.0 | 0.00 | 0.00 | 0.00 | 55 | 1020.2 |
| 20260509030026 | 53 | 202 | 0.0 | 1.0 | 0.00 | 0.00 | 0.00 | 55 | 1020.0 |
| 20260509024530 | 54 | 128 | 1.0 | 4.0 | 0.00 | 0.00 | 0.00 | 55 | 1020.0 |
| 20260509023028 | 55 | 117 | 1.0 | 4.0 | 0.00 | 0.00 | 0.00 | 54 | 1019.9 |
| 20260509021524 | 56 | 139 | 0.0 | 2.0 | 0.00 | 0.00 | 0.00 | 52 | 1019.5 |
| 20260509020026 | 57 | 129 | 0.0 | 2.0 | 0.00 | 0.00 | 0.00 | 50 | 1019.4 |
| 20260509014524 | 57 | 145 | 2.0 | 8.0 | 0.00 | 0.00 | 0.00 | 48 | 1019.3 |
| 20260509013024 | 58 | 109 | 1.0 | 3.0 | 0.00 | 0.00 | 0.00 | 46 | 1019.1 |
| 20260509011523 | 58 | 149 | 0.0 | 3.0 | 0.00 | 0.00 | 0.00 | 46 | 1018.7 |
| 20260509010029 | 59 | 136 | 0.0 | 2.0 | 0.00 | 0.00 | 0.00 | 43 | 1018.5 |
| 20260509004532 | 61 | 116 | 2.0 | 7.0 | 0.00 | 0.00 | 0.00 | 39 | 1018.4 |
| 20260509003022 | 64 | 106 | 2.0 | 7.0 | 0.00 | 0.00 | 0.00 | 37 | 1018.4 |
| 20260509001525 | 64 | 107 | 1.0 | 6.0 | 0.00 | 0.00 | 0.00 | 37 | 1018.3 |
| 20260509000021 | 62 | 125 | 1.0 | 9.0 | 0.00 | 0.00 | 0.00 | 39 | 1018.3 |
| 20260508234525 | 63 | 78 | 2.0 | 12.0 | 0.00 | 0.00 | 0.00 | 37 | 1018.4 |
| 20260508233020 | 64 | 91 | 4.0 | 10.0 | 0.00 | 0.00 | 0.00 | 35 | 1018.3 |
| 20260508231519 | 64 | 109 | 3.0 | 10.0 | 0.00 | 0.00 | 0.00 | 36 | 1018.4 |
| 20260508230019 | 65 | 136 | 4.0 | 9.0 | 0.00 | 0.00 | 0.00 | 35 | 1018.0 |
| 20260508224522 | 65 | 125 | 4.0 | 11.0 | 0.00 | 0.00 | 0.00 | 35 | 1018.2 |
| 20260508223024 | 64 | 122 | 2.0 | 9.0 | 0.00 | 0.00 | 0.00 | 35 | 1018.3 |
| 20260508221517 | 65 | 125 | 3.0 | 12.0 | 0.00 | 0.00 | 0.00 | 35 | 1018.4 |
| 20260508220015 | 65 | 113 | 1.0 | 8.0 | 0.00 | 0.00 | 0.00 | 37 | 1018.5 |
| 20260508214523 | 64 | 127 | 1.0 | 11.0 | 0.00 | 0.00 | 0.00 | 37 | 1018.7 |
| 20260508213017 | 64 | 129 | 2.0 | 10.0 | 0.00 | 0.00 | 0.00 | 37 | 1018.7 |
| 20260508211513 | 64 | 109 | 4.0 | 11.0 | 0.00 | 0.00 | 0.00 | 36 | 1018.8 |
| 20260508210015 | 64 | 120 | 2.0 | 10.0 | 0.00 | 0.00 | 0.00 | 36 | 1018.9 |
| 20260508204517 | 64 | 280 | 2.0 | 7.0 | 0.00 | 0.00 | 0.00 | 37 | 1019.1 |
| 20260508203016 | 65 | 132 | 4.0 | 11.0 | 0.00 | 0.00 | 0.00 | 35 | 1019.3 |
| 20260508201511 | 63 | 110 | 3.0 | 8.0 | 0.00 | 0.00 | 0.00 | 37 | 1019.4 |
| 20260508200009 | 63 | 107 | 1.0 | 6.0 | 0.00 | 0.00 | 0.00 | 38 | 1019.4 |
| 20260508194507 | 63 | 114 | 5.0 | 10.0 | 0.00 | 0.00 | 0.00 | 39 | 1019.4 |
| 20260508193007 | 63 | 136 | 4.0 | 10.0 | 0.00 | 0.00 | 0.00 | 39 | 1019.5 |
| 20260508191505 | 62 | 105 | 3.0 | 11.0 | 0.00 | 0.00 | 0.00 | 38 | 1019.6 |
| 20260508190014 | 63 | 126 | 3.0 | 9.0 | 0.00 | 0.00 | 0.00 | 39 | 1019.5 |
| 20260508184512 | 62 | 150 | 3.0 | 8.0 | 0.00 | 0.00 | 0.00 | 38 | 1019.8 |
| 20260508183007 | 63 | 123 | 1.0 | 5.0 | 0.00 | 0.00 | 0.00 | 39 | 1020.0 |
| 20260508181501 | 60 | 224 | 2.0 | 7.0 | 0.00 | 0.00 | 0.00 | 41 | 1020.1 |
| 20260508180114 | 61 | 132 | 0.0 | 5.0 | 0.00 | 0.00 | 0.00 | 42 | 1020.4 |
| 20260508174612 | 59 | 127 | 1.0 | 3.0 | 0.00 | 0.00 | 0.00 | 44 | 1020.5 |
| 20260508173058 | 58 | 125 | 1.0 | 5.0 | 0.00 | 0.00 | 0.00 | 46 | 1020.6 |
| 20260508171555 | 58 | 313 | 0.0 | 3.0 | 0.00 | 0.00 | 0.00 | 50 | 1020.7 |
| 20260508164554 | 57 | 341 | 2.0 | 5.0 | 0.00 | 0.00 | 0.00 | 53 | 1020.7 |
| 20260508163051 | 55 | 115 | 1.0 | 4.0 | 0.00 | 0.00 | 0.00 | 58 | 1020.8 |